Location: Dumpton Point
(51.3500°N, 1.4433°E)
Time: 10:25:24
(UTC+00:00)

Cosmos 1980 Rocket - Pass Details

Date: 09 April 2020
Orbit: 829 x 850 km, 71.0° (Epoch: 25 May)

Event Time Altitude Azimuth Distance (km) Brightness Sun altitude
Rises 23:19:29 0° 321° (NW) 3,391 6.2 -30.1°
Reaches altitude 10° 23:22:27 10° 306° (NW) 2,455 5.1 -30.2°
Enters shadow 23:25:53 21° 269° (W) 1,817 3.9 -30.3°
